Regional Weather Roundup
Issued by NWS Upton, NY

Current Version | Previous Version | Text Only | Print | Product List | Glossary Off
Versions: 1 2 3 4 5 6 7 8 9 10 11 12 13 14 15 16 17 18 19 20 21 22 23 24 25 26 27
000 ASUS41 KOKX 261408 RWROKX REGIONAL WEATHER ROUNDUP NATIONAL WEATHER SERVICE NEW YORK NY 900 AM EST SUN FEB 26 2017 NOTE: "FAIR" INDICATES FEW OR NO CLOUDS BELOW 12,000 FEET WITH NO SIGNIFICANT WEATHER AND/OR OBSTRUCTIONS TO VISIBILITY. NYZ071-072-176-178-NJZ106-104-261500- NEW YORK CITY METRO AREA CITY SKY/WX TMP DP RH WIND PRES REMARKS Central Park CLOUDY 37 18 46 W9G25 29.98R WCI 30 Wall St Helipt NOT AVBL LaGuardia APRT CLOUDY 40 20 44 NW24G35 29.96R WCI 29 Kennedy INTL PTSUNNY 39 21 48 NW20G29 29.96R WCI 29 Breezy Point N/A 37 N/A N/A W17G28 N/A WCI 28 Newark/Liberty PTSUNNY 39 18 42 NW22G33 29.97R WCI 29 Teterboro CLOUDY 38 19 46 NW24G32 29.96R WCI 27 $$ NYZ177-179-078>081-261500- LONG ISLAND NEW YORK CITY SKY/WX TMP DP RH WIND PRES REMARKS Jones Beach N/A 37 N/A N/A NW20G26 N/A WCI 27 Matinecock PT N/A 37 N/A N/A NW24G31 N/A WCI 26 Farmingdale CLOUDY 38 19 46 NW17G25 29.94R WCI 28 MacArthur/ISP CLOUDY 38 21 50 NW20G25 29.92R WCI 28 Shirley PTSUNNY 38 19 46 NW20G32 29.92R WCI 28 Westhampton CLOUDY 39 18 42 W21G29 29.92R WCI 29 Southampton NOT AVBL Bridgehampton NOT AVBL East Hampton CLOUDY 37 21 51 NW13G22 29.89R WCI 29 Montauk N/A 39 23 52 NW14G22 29.88R WCI 31 $$ NYZ052-065-067-261500- HUDSON VALLEY CITY SKY/WX TMP DP RH WIND PRES REMARKS White Plains PTSUNNY 35 17 47 NW24G31 29.92R WCI 23 Newburgh PTSUNNY 34 18 51 NW14G28 29.96R WCI 24 Montgomery CLOUDY 35 16 45 NW18G26 29.95R WCI 24 Poughkeepsie CLOUDY 36 15 42 W13G24 29.95R WCI 27 Albany CLOUDY 33 19 56 W17 29.93R WCI 22 $$ NJZ001-105-106-008-010-013-015-019>022-104-261500- NEW JERSEY CITY SKY/WX TMP DP RH WIND PRES REMARKS Newark/Liberty PTSUNNY 39 18 42 NW22G33 29.97R WCI 29 Teterboro CLOUDY 38 19 46 NW24G32 29.96R WCI 27 Caldwell CLOUDY 37 17 44 NW13G23 29.98R WCI 29 Somerville CLOUDY 37 17 44 NW12G20 29.98R WCI 29 Linden NOT AVBL Sussex CLOUDY 34 15 46 NW14G22 29.97R WCI 25 Andover N/A 33 15 47 NW10G22 29.97R WCI 25 Trenton CLOUDY 36 18 48 NW10G28 30.01R WCI 28 Millville MOSUNNY 38 20 48 W21G35 30.05R WCI 28 Atlantic City PTSUNNY 39 20 46 W20G28 30.02R WCI 29 Wrightstown CLOUDY 37 20 50 NW16G24 29.98R WCI 28 Toms River CLOUDY 38 20 48 NW16G26 30.00R WCI 29 Belmar CLOUDY 37 20 50 W23G30 29.98R WCI 26 $$ PAZ047>061-062-071-261500- EASTERN PENNSYLVANIA CITY SKY/WX TMP DP RH WIND PRES REMARKS Philadelphia PTSUNNY 37 17 44 W21G28 30.06R WCI 26 Allentown CLOUDY 36 16 44 W14G22 30.01R WCI 27 Scranton CLOUDY 30 16 56 NW16G24 29.99R WCI 19 $$ CTZ002-004>006-009-010-012-RIZ004-006-007-MAZ004-011-015-261500- SOUTHERN NEW ENGLAND IN CT CITY SKY/WX TMP DP RH WIND PRES REMARKS Bradley INTL PTSUNNY 36 18 48 W16G28 29.89R WCI 26 Hartford CLOUDY 37 17 44 NW21G32 29.91R WCI 26 Danbury PTSUNNY 34 15 46 W16G26 29.92R WCI 24 Wtrbury/Oxford PTSUNNY 34 16 47 NW12G23 29.89R WCI 25 Bridgeport CLOUDY 39 19 44 W20G26 29.92R WCI 29 Meriden CLOUDY 38 17 42 NW14G25 29.91R WCI 30 New Haven CLOUDY 37 20 50 NW12G23 29.91R WCI 29 Chester CLOUDY 36 18 48 NW20G29 29.87R WCI 25 Groton PTSUNNY 39 19 44 NW21G31 29.87R WCI 29 Wilimantic CLOUDY 38 18 44 NW14G29 29.88R WCI 30 IN RI CITY SKY/WX TMP DP RH WIND PRES REMARKS Providence MOSUNNY 39 18 42 W12G23 29.83R WCI 32 Block Island MOSUNNY 39 23 52 NW17G25 29.86R WCI 30 Westerly MOSUNNY 40 16 37 NW15G26 29.86R WCI 32 IN MA CITY SKY/WX TMP DP RH WIND PRES REMARKS Boston PTSUNNY 40 19 43 W16G28 29.78R WCI 31 Worcester CLOUDY 32 16 51 NW26G36 29.78R WCI 18 Westfield PTSUNNY 35 18 49 NW17G24 29.86R WCI 25 Provincetown PTSUNNY 40 24 53 W21G31 29.77R WCI 30 Nantucket SUNNY 40 22 48 W24G35 29.80R WCI 29 $$ ANZ330-335-338-340-345-350-353-355-261500- COASTAL MARINE OBSERVATIONS STATION/POSITION TIME SKY/WX TEMP WIND PRES VSBY WAVE AIR SEA DIR/SP/G HT/PER (UTC) (F) (DEG/KT/KT) (MB) (MI) (FT/S) NY HARB ENTRANCE 1350 38 43 290/ 21/ 27 1013.7 4/ 5 20 S FIRE ISLAND 1350 38 43 310/ 21/ 29 1013.3 6/ 6 GREAT SOUTH BAY NOT AVBL 23 SSW MONTAUK P 1250 39 44 1011.0 6/11 15 E BARNEGAT LI 1330 44 N/A 5/11 HUDSON CANYON 1250 48 1012.3 9/ 7 KINGS POINT 1342 36 40 1014.1 EXECUTION ROCKS NOT AVBL CENTRAL LI SOUND 1315 38 310/ 17/ 21 N/A 3/ 5 EASTERN LI SOUND NOT AVBL ROBBINS REEF 1342 37 310/ 22/ 28 1014.6 $$ >>>>>>>>>>>>>>>>>>>>>>>>>>>> KEY <<<<<<<<<<<<<<<<<<<<<<<<<<< > < > SKY/WX - Sky Condition/Present Weather < > TMP - Temperature in Fahrenheit < > DP - Dew Point in Fahrenheit < > RH - Relative Humidity in Percent < > WIND - Direction (from) and Speed in MPH < > PRES - Mean Sea Level Pressure (inches of Hg) < > WCI - Wind Chill Index < > VSB - VISIBILITY IN MILES < > HX - HEAT INDEX < > TC - TEMPERATURE IN CELSIUS < > VRB - VARIABLE WIND DIRECTION < > < >>>>>>>>>>>>>>>>>>>>>>>>>>>> KEY <<<<<<<<<<<<<<<<<<<<<<<<<<<

USA.gov is the U.S. government's official web portal to all federal, state and local government web resources and services.